Regional Weather Roundup
Issued by NWS

Home | Current Version | Previous Version | Text Only | Print | Product List | Glossary On
Versions: 1 2 3 4 5 6 7 8 9 10 11 12 13 14 15 16 17 18 19 20 21 22 23 24 25 26 27 28 29 30 31 32 33 34 35 36 37 38 39 40 41 42 43 44 45 46 47 48 49 50
000
ASUS43 KFSD 240510
RWRSD

WEATHER ROUNDUP FOR SOUTH DAKOTA
NATIONAL WEATHER SERVICE SIOUX FALLS SD
1200 AM CDT WED AUG 24 2016

NOTE: "FAIR" INDICATES FEW OR NO CLOUDS BELOW 12,000 FEET WITH NO
SIGNIFICANT WEATHER AND/OR OBSTRUCTIONS TO VISIBILITY.


SDZ001>005-009-010-012>017-240600-
NORTHWEST AND NORTH CENTRAL SOUTH DAKOTA

CITY           SKY/WX    TMP DP  RH WIND       PRES   REMARKS
BUFFALO          N/A     59  37  44 NW15      29.98R
FAITH            N/A     56  39  53 NW10      30.00S
MOBRIDGE       CLOUDY    63  47  55 NW9       29.91R
$$

SDZ012>016-024>037-041>051-057-063-072>074-240600-
SOUTHWEST AND SOUTH CENTRAL SOUTH DAKOTA

CITY           SKY/WX    TMP DP  RH WIND       PRES   REMARKS
RAPID CTY ARPT PTCLDY    58  35  42 NW10      30.08R
PIERRE         PTCLDY    66  47  50 N12       29.91R
CUSTER         CLOUDY    56  28  34 N3        30.19R
ELLSWORTH AFB  CLEAR     65  33  29 NW10      30.07R
PHILIP         PTCLDY    58  41  53 NW8       29.98R
PINE RIDGE     CLEAR     51  45  79 E3        30.06R
WINNER         FAIR      62  47  57 W5        29.96R
$$

SDZ004>011-016>023-039-040-240600-
NORTHEAST SOUTH DAKOTA

CITY           SKY/WX    TMP DP  RH WIND       PRES   REMARKS
ABERDEEN       PTCLDY    65  50  58 NW9       29.86R
WATERTOWN      CLOUDY    70  68  93 SW9       29.85R
BROOKINGS      CLOUDY    69  68  96 W3        29.85R FOG
SISSETON         N/A     73  65  75 NW13      29.80R
$$

SDZ017-020-022-023-036>040-048>070-240600-
SOUTHEAST SOUTH DAKOTA

CITY           SKY/WX    TMP DP  RH WIND       PRES   REMARKS
SIOUX FALLS    CLOUDY    73  72  96 CALM      29.82R
HURON          CLEAR     63  59  87 NW7       29.87R
CHAMBERLAIN    CLEAR     71  49  45 N12       29.92R
MITCHELL       CLEAR     68  62  81 NW9       29.87R
YANKTON        CLOUDY    73  66  78 W5        29.81R
$$

ABBREVIATIONS USED IN REMARKS
   TC - TEMPERATURE IN CELSIUS
  WCI - WIND CHILL INDEX
   HX - HEAT INDEX
  VSB - VISIBILITY





USA.gov is the U.S. government's official web portal to all federal, state and local government web resources and services.